TimeCDT,TemperatureF,Dew PointF,Humidity,Sea Level PressureIn,VisibilityMPH,Wind Direction,Wind SpeedMPH,Gust SpeedMPH,PrecipitationIn,Events,Conditions,WindDirDegrees,DateUTC
12:15 AM,41.0,37.4,87,29.45,10.0,West,15.0,-,N/A,,Overcast,280,2013-11-01 05:15:00
1:15 AM,41.0,37.4,87,29.46,10.0,West,12.7,18.4,N/A,,Overcast,280,2013-11-01 06:15:00
4:35 AM,41.0,37.4,87,29.50,10.0,WNW,11.5,18.4,N/A,,Overcast,290,2013-11-01 09:35:00
4:55 AM,41.0,37.4,87,29.51,10.0,WNW,13.8,-,N/A,,Overcast,290,2013-11-01 09:55:00
5:15 AM,41.0,37.4,87,29.52,10.0,WNW,11.5,17.3,N/A,,Overcast,290,2013-11-01 10:15:00
5:35 AM,41.0,37.4,87,29.53,10.0,WNW,13.8,-,N/A,,Overcast,300,2013-11-01 10:35:00
5:55 AM,41.0,37.4,87,29.53,10.0,WNW,11.5,-,N/A,,Overcast,300,2013-11-01 10:55:00
6:15 AM,41.0,37.4,87,29.54,10.0,WNW,11.5,-,N/A,,Overcast,290,2013-11-01 11:15:00
6:35 AM,41.0,37.4,87,29.55,10.0,WNW,11.5,20.7,N/A,,Overcast,300,2013-11-01 11:35:00
6:55 AM,41.0,37.4,87,29.56,10.0,WNW,10.4,18.4,N/A,,Overcast,300,2013-11-01 11:55:00
7:15 AM,41.0,37.4,87,29.56,10.0,WNW,12.7,-,N/A,,Overcast,300,2013-11-01 12:15:00
7:35 AM,41.0,37.4,87,29.57,-9999.0,WNW,10.4,-,N/A,,Overcast,300,2013-11-01 12:35:00
7:55 AM,41.0,37.4,87,29.57,8.0,WNW,10.4,-,N/A,,Overcast,300,2013-11-01 12:55:00
8:15 AM,41.0,37.4,87,29.58,8.0,WNW,13.8,-,N/A,,Overcast,300,2013-11-01 13:15:00
8:35 AM,41.0,37.4,87,29.59,8.0,WNW,11.5,-,N/A,,Mostly Cloudy,300,2013-11-01 13:35:00
8:55 AM,41.0,37.4,87,29.60,8.0,WNW,10.4,-,N/A,,Mostly Cloudy,300,2013-11-01 13:55:00
9:15 AM,41.0,37.4,87,29.60,9.0,WNW,6.9,-,N/A,,Overcast,300,2013-11-01 14:15:00
9:35 AM,42.8,37.4,81,29.61,9.0,WNW,10.4,-,N/A,,Partly Cloudy,300,2013-11-01 14:35:00
9:55 AM,42.8,37.4,81,29.61,9.0,WNW,13.8,-,N/A,,Partly Cloudy,300,2013-11-01 14:55:00
10:15 AM,42.8,37.4,81,29.61,9.0,West,10.4,-,N/A,,Mostly Cloudy,270,2013-11-01 15:15:00
10:35 AM,44.6,37.4,76,29.62,9.0,West,12.7,-,N/A,,Overcast,280,2013-11-01 15:35:00
10:55 AM,44.6,37.4,76,29.62,9.0,West,9.2,17.3,N/A,,Mostly Cloudy,280,2013-11-01 15:55:00
11:15 AM,44.6,37.4,76,29.63,9.0,West,13.8,19.6,N/A,,Overcast,280,2013-11-01 16:15:00
11:35 AM,46.4,37.4,71,29.64,10.0,West,13.8,-,N/A,,Overcast,280,2013-11-01 16:35:00
11:55 AM,46.4,37.4,71,29.64,10.0,WNW,12.7,19.6,N/A,,Overcast,290,2013-11-01 16:55:00
12:15 PM,46.4,35.6,66,29.65,10.0,WNW,16.1,23.0,N/A,,Scattered Clouds,300,2013-11-01 17:15:00
12:35 PM,48.2,35.6,62,29.65,10.0,WNW,19.6,-,N/A,,Mostly Cloudy,300,2013-11-01 17:35:00
12:55 PM,48.2,35.6,62,29.65,10.0,WNW,15.0,23.0,N/A,,Overcast,290,2013-11-01 17:55:00
1:15 PM,50.0,35.6,58,29.65,10.0,NW,18.4,-,N/A,,Overcast,310,2013-11-01 18:15:00
1:35 PM,50.0,33.8,54,29.65,10.0,WNW,15.0,23.0,N/A,,Overcast,290,2013-11-01 18:35:00
1:55 PM,50.0,33.8,54,29.65,10.0,NW,18.4,-,N/A,,Overcast,310,2013-11-01 18:55:00
2:15 PM,50.0,33.8,54,29.66,10.0,NW,17.3,25.3,N/A,,Overcast,310,2013-11-01 19:15:00
2:35 PM,50.0,33.8,54,29.66,10.0,WNW,18.4,24.2,N/A,,Overcast,290,2013-11-01 19:35:00
2:55 PM,51.8,33.8,50,29.66,10.0,WNW,17.3,24.2,N/A,,Overcast,300,2013-11-01 19:55:00
3:15 PM,50.0,33.8,54,29.67,10.0,WNW,13.8,21.9,N/A,,Mostly Cloudy,290,2013-11-01 20:15:00
5:15 PM,50.0,33.8,54,29.70,10.0,WNW,8.1,-,N/A,,Clear,300,2013-11-01 22:15:00
5:35 PM,50.0,33.8,54,29.70,10.0,WNW,5.8,12.7,N/A,,Scattered Clouds,300,2013-11-01 22:35:00
5:55 PM,48.2,35.6,62,29.71,-9999.0,WNW,5.8,-,N/A,,Scattered Clouds,300,2013-11-01 22:55:00
6:15 PM,48.2,35.6,62,29.71,10.0,WNW,5.8,-,N/A,,Overcast,300,2013-11-01 23:15:00
6:35 PM,46.4,35.6,66,29.72,10.0,WNW,6.9,-,N/A,,Scattered Clouds,300,2013-11-01 23:35:00
6:55 PM,44.6,35.6,71,29.73,10.0,WNW,6.9,-,N/A,,Clear,300,2013-11-01 23:55:00
7:15 PM,44.6,35.6,71,29.73,10.0,WNW,4.6,-,N/A,,Clear,300,2013-11-02 00:15:00
7:35 PM,42.8,33.8,70,29.74,10.0,WNW,6.9,-,N/A,,Clear,290,2013-11-02 00:35:00
7:55 PM,42.8,35.6,76,29.75,10.0,West,8.1,-,N/A,,Partly Cloudy,270,2013-11-02 00:55:00
8:15 PM,42.8,35.6,76,29.76,10.0,WNW,9.2,-,N/A,,Clear,290,2013-11-02 01:15:00
8:35 PM,42.8,35.6,76,29.76,10.0,WNW,9.2,-,N/A,,Clear,300,2013-11-02 01:35:00
8:55 PM,42.8,35.6,76,29.76,10.0,NW,8.1,-,N/A,,Mostly Cloudy,310,2013-11-02 01:55:00
9:15 PM,42.8,35.6,76,29.77,10.0,WNW,8.1,-,N/A,,Mostly Cloudy,300,2013-11-02 02:15:00
9:35 PM,39.2,35.6,87,29.78,10.0,WNW,6.9,-,N/A,,Clear,300,2013-11-02 02:35:00
9:55 PM,39.2,35.6,87,29.78,10.0,WNW,4.6,-,N/A,,Clear,300,2013-11-02 02:55:00
10:15 PM,39.2,35.6,87,29.79,10.0,West,6.9,-,N/A,,Clear,270,2013-11-02 03:15:00
10:35 PM,37.4,35.6,93,29.80,10.0,WNW,6.9,-,N/A,,Clear,290,2013-11-02 03:35:00
10:55 PM,37.4,35.6,93,29.81,10.0,WNW,6.9,-,N/A,,Clear,290,2013-11-02 03:55:00
11:15 PM,39.2,35.6,87,29.81,10.0,WNW,8.1,-,N/A,,Clear,290,2013-11-02 04:15:00
11:35 PM,37.4,33.8,87,29.82,10.0,WNW,6.9,-,N/A,,Scattered Clouds,300,2013-11-02 04:35:00
11:55 PM,39.2,35.6,87,29.82,10.0,NW,9.2,-,N/A,,Overcast,320,2013-11-02 04:55:00